Location: Brienzwiler
(46.7508°N, 8.1014°E)
Time: 01:25:17
(UTC+00:00)

Cosmos 2360 Rocket - Pass Details

Date: 05 July 2020
Orbit: 832 x 846 km, 71.0° (Epoch: 11 August)

Event Time Altitude Azimuth Distance (km) Brightness Sun altitude
Rises 20:31:36 0° 208° (SSW) 3,375 5.1 -9.5°
Reaches altitude 10° 20:34:02 10° 210° (SSW) 2,447 4.4 -9.8°
Maximum altitude 20:39:39 79° 297° (WNW) 861 2.4 -10.4°
Drops below altitude 10° 20:45:21 10° 25° (NNE) 2,472 5.0 -11.0°
Sets 20:47:49 0° 27° (NNE) 3,413 5.7 -11.3°
